Weather History for KCOQ - April, 2014

Change the Weather History Date:

Monday, April 14, 2014

  Actual Average Record
Temperature  
Mean Temperature 26 °F -  
Max Temperature 30 °F 45 °F 82 °F (2003)
Min Temperature 19 °F 28 °F 10 °F (2013)
Degree Days  
Heating Degree Days 40    
Moisture  
Dew Point 10 °F    
Average Humidity 54    
Maximum Humidity 80    
Minimum Humidity 29    
Precipitation  
Precipitation 0.00 in - - ()
Sea Level Pressure  
Sea Level Pressure 30.00 in    
Wind  
Wind Speed 16 mph (NNW)    
Max Wind Speed 23 mph    
Max Gust Speed 34 mph    
Visibility 10 miles    
Events Snow    
Averages and records for this station are not official NWS values.
T = Trace of Precipitation, MM = Missing Value Source: NWS Daily Summary

Daily Weather History Graph

Daily Weather History Graph

Search for Another Location

Airport or City:

Trip Planner

Search our weather history database for the weather conditions in past years. The results will help you decide how hot, cold, wet, or windy it might be!

Date:

Astronomy

Apr. 14, 2014 Rise Set
Actual Time 6:24 AM CDT 7:56 PM CDT
Civil Twilight 5:52 AM CDT 8:28 PM CDT
Nautical Twilight 5:14 AM CDT 9:07 PM CDT
Astronomical Twilight 4:33 AM CDT 9:48 PM CDT
Moon 7:35 PM CDT (4/14) 5:59 AM CDT (4/14)
Length of Visible Light 14h 35m
Length of Day
13h 32m
Full, 100% of the Moon is Illuminated
Apr 14
Full
Apr 15
Full
Apr 22
Last Quarter
Apr 29
New
May 6
First Quarter

Hourly Weather History & Observations

Time (CDT) Temp. Windchill Dew Point Humidity Pressure Visibility Wind Dir Wind Speed Gust Speed Precip Events Conditions
12:17 AM 28.4 °F 15.8 °F 19.4 °F 69% 29.96 in 10.0 mi NNW 18.4 mph 26.5 mph N/A   Overcast
12:36 AM 28.4 °F 14.7 °F 19.4 °F 69% 29.96 in 10.0 mi NNW 21.9 mph 28.8 mph N/A   Overcast
12:57 AM 28.4 °F 18.0 °F 19.4 °F 69% 29.96 in 10.0 mi NNW 12.7 mph 25.3 mph N/A   Overcast
1:17 AM 28.4 °F 18.5 °F 19.4 °F 69% 29.96 in 10.0 mi NNW 11.5 mph 25.3 mph N/A   Overcast
1:36 AM 28.4 °F 15.4 °F 19.4 °F 69% 29.96 in 10.0 mi NNW 19.6 mph 33.4 mph N/A   Overcast
1:57 AM 26.6 °F 12.7 °F 17.6 °F 69% 29.95 in 10.0 mi NNW 20.7 mph 28.8 mph N/A   Overcast
2:17 AM 26.6 °F 13.1 °F 17.6 °F 69% 29.94 in 10.0 mi NNW 19.6 mph 28.8 mph N/A   Overcast
2:36 AM 26.6 °F 12.0 °F 15.8 °F 64% 29.93 in 10.0 mi NNW 23.0 mph 29.9 mph N/A   Overcast
2:57 AM 26.6 °F 13.1 °F 15.8 °F 64% 29.93 in 10.0 mi NNW 19.6 mph 27.6 mph N/A   Overcast
3:17 AM 26.6 °F 12.0 °F 15.8 °F 64% 29.92 in 10.0 mi NNW 23.0 mph 32.2 mph N/A   Overcast
3:36 AM 26.6 °F 13.8 °F 12.2 °F 55% 29.92 in 10.0 mi North 17.3 mph 34.5 mph N/A   Scattered Clouds
3:57 AM 26.6 °F 13.4 °F 12.2 °F 55% 29.92 in 10.0 mi NNW 18.4 mph 32.2 mph N/A   Clear
4:17 AM 24.8 °F 10.3 °F 12.2 °F 59% 29.93 in 10.0 mi NNW 20.7 mph 25.3 mph N/A   Clear
4:36 AM 24.8 °F 10.7 °F 14.0 °F 64% 29.93 in 10.0 mi NNW 19.6 mph 26.5 mph N/A   Scattered Clouds
4:57 AM 24.8 °F 10.3 °F 15.8 °F 69% 29.93 in 10.0 mi NW 20.7 mph 27.6 mph N/A Snow Light Snow
5:17 AM 24.8 °F 10.3 °F 15.8 °F 69% 29.93 in 10.0 mi NNW 20.7 mph 27.6 mph N/A   Overcast
5:36 AM 24.8 °F 12.4 °F 14.0 °F 64% 29.94 in 10.0 mi NNW 15.0 mph 23.0 mph N/A   Mostly Cloudy
5:57 AM 23.0 °F 9.6 °F 12.2 °F 63% 29.94 in 10.0 mi NNW 16.1 mph 28.8 mph N/A   Scattered Clouds
6:17 AM 23.0 °F 10.6 °F 12.2 °F 63% 29.95 in 10.0 mi NNW 13.8 mph 25.3 mph N/A   Clear
6:36 AM 21.2 °F 6.8 °F 12.2 °F 68% 29.95 in 10.0 mi NW 17.3 mph 20.7 mph N/A   Clear
6:57 AM 21.2 °F 7.3 °F 12.2 °F 68% 29.96 in 10.0 mi NNW 16.1 mph 23.0 mph N/A   Clear
7:16 AM 21.2 °F 8.9 °F 12.2 °F 68% 29.97 in 10.0 mi NNW 12.7 mph 25.3 mph N/A   Clear
7:37 AM 21.2 °F 5.6 °F 12.2 °F 68% 29.99 in 10.0 mi NNW 20.7 mph 25.3 mph N/A   Clear
7:56 AM 21.2 °F 5.6 °F 10.4 °F 63% 29.99 in 10.0 mi NNW 20.7 mph 27.6 mph N/A   Clear
8:17 AM 23.0 °F 9.6 °F 10.4 °F 59% 30.01 in 10.0 mi NNW 16.1 mph 25.3 mph N/A   Clear
8:36 AM 23.0 °F 8.0 °F 10.4 °F 59% 30.01 in 10.0 mi NNW 20.7 mph 28.8 mph N/A   Scattered Clouds
8:57 AM 23.0 °F 9.6 °F 10.4 °F 59% 30.01 in 10.0 mi NNW 16.1 mph 26.5 mph N/A   Scattered Clouds
9:17 AM 23.0 °F 10.6 °F 8.6 °F 54% 30.02 in 10.0 mi North 13.8 mph 29.9 mph N/A   Mostly Cloudy
9:36 AM 24.8 °F 11.5 °F 8.6 °F 50% 30.02 in 10.0 mi NNW 17.3 mph 26.5 mph N/A   Mostly Cloudy
9:57 AM 24.8 °F 12.9 °F 6.8 °F 46% 30.02 in 10.0 mi North 13.8 mph 26.5 mph N/A   Mostly Cloudy
10:17 AM 24.8 °F 11.1 °F 6.8 °F 46% 30.03 in 10.0 mi NNW 18.4 mph 27.6 mph N/A   Scattered Clouds
10:36 AM 26.6 °F 14.3 °F 6.8 °F 43% 30.03 in 10.0 mi NNW 16.1 mph 27.6 mph N/A   Scattered Clouds
10:56 AM 26.6 °F 13.8 °F 6.8 °F 43% 30.02 in 10.0 mi NW 17.3 mph 26.5 mph N/A   Mostly Cloudy
11:17 AM 26.6 °F 14.3 °F 6.8 °F 43% 30.03 in 10.0 mi NW 16.1 mph 25.3 mph N/A   Overcast
11:36 AM 26.6 °F 13.8 °F 6.8 °F 43% 30.03 in 10.0 mi NNW 17.3 mph 25.3 mph N/A   Overcast
11:56 AM 26.6 °F 14.3 °F 6.8 °F 43% 30.03 in 10.0 mi NNW 16.1 mph 29.9 mph N/A   Mostly Cloudy
12:16 PM 26.6 °F 13.1 °F 8.6 °F 47% 30.03 in 10.0 mi NW 19.6 mph 23.0 mph N/A   Mostly Cloudy
12:36 PM 26.6 °F 15.2 °F 8.6 °F 47% 30.03 in 10.0 mi NNW 13.8 mph 25.3 mph N/A   Mostly Cloudy
12:57 PM 26.6 °F 15.7 °F 8.6 °F 47% 30.03 in 10.0 mi NNW 12.7 mph 28.8 mph N/A   Overcast
1:16 PM 26.6 °F 14.3 °F 8.6 °F 47% 30.03 in 10.0 mi NW 16.1 mph 25.3 mph N/A   Overcast
1:36 PM 26.6 °F 13.8 °F 5.0 °F 40% 30.03 in 10.0 mi NNW 17.3 mph 26.5 mph N/A   Overcast
1:57 PM 26.6 °F 14.7 °F 5.0 °F 40% 30.03 in 10.0 mi NW 15.0 mph 26.5 mph N/A   Mostly Cloudy
2:16 PM 30.2 °F 21.3 °F 5.0 °F 34% 30.03 in 10.0 mi WNW 10.4 mph 20.7 mph N/A   Overcast
2:36 PM 28.4 °F 16.2 °F 3.2 °F 34% 30.03 in 10.0 mi NW 17.3 mph 21.9 mph N/A   Mostly Cloudy
2:57 PM 28.4 °F 18.5 °F 3.2 °F 34% 30.03 in 10.0 mi NNW 11.5 mph 24.2 mph N/A   Mostly Cloudy
3:16 PM 28.4 °F 17.0 °F 3.2 °F 34% 30.03 in 10.0 mi NW 15.0 mph 23.0 mph N/A   Mostly Cloudy
3:36 PM 28.4 °F 17.0 °F 5.0 °F 37% 30.03 in 10.0 mi NW 15.0 mph 21.9 mph N/A   Mostly Cloudy
3:57 PM 28.4 °F 17.0 °F 1.4 °F 31% 30.02 in 10.0 mi NW 15.0 mph 20.7 mph N/A   Mostly Cloudy
4:17 PM 30.2 °F 18.5 °F 1.4 °F 29% 30.01 in 10.0 mi WNW 17.3 mph 24.2 mph N/A   Mostly Cloudy
4:36 PM 28.4 °F 18.5 °F 6.8 °F 40% 30.01 in 10.0 mi NNW 11.5 mph 26.5 mph N/A   Mostly Cloudy
4:57 PM 28.4 °F 17.0 °F 5.0 °F 37% 30.01 in 10.0 mi NNW 15.0 mph 24.2 mph N/A   Overcast
5:17 PM 26.6 °F 15.2 °F 3.2 °F 37% 30.01 in 10.0 mi NW 13.8 mph 24.2 mph N/A   Mostly Cloudy
5:36 PM 28.4 °F 15.4 °F 8.6 °F 43% 30.01 in 10.0 mi NNW 19.6 mph 26.5 mph N/A   Mostly Cloudy
5:57 PM 28.4 °F 18.5 °F 6.8 °F 40% 30.01 in 10.0 mi NW 11.5 mph - N/A   Mostly Cloudy
6:17 PM 28.4 °F 16.6 °F 6.8 °F 40% 30.02 in 10.0 mi NW 16.1 mph 24.2 mph N/A   Mostly Cloudy
6:36 PM 26.6 °F 16.2 °F 8.6 °F 47% 30.02 in 10.0 mi NW 11.5 mph 19.6 mph N/A   Overcast
6:57 PM 26.6 °F 15.7 °F 5.0 °F 40% 30.02 in 10.0 mi WNW 12.7 mph 20.7 mph N/A   Overcast
7:17 PM 26.6 °F 14.3 °F 8.6 °F 47% 30.03 in 10.0 mi WNW 16.1 mph 19.6 mph N/A   Overcast
7:36 PM 24.8 °F 16.9 °F 10.4 °F 54% 30.03 in 10.0 mi North 6.9 mph 21.9 mph N/A   Overcast
7:57 PM 24.8 °F 17.9 °F 10.4 °F 54% 30.03 in 10.0 mi NNW 5.8 mph - N/A   Mostly Cloudy
8:16 PM 24.8 °F 12.9 °F 10.4 °F 54% 30.04 in 7.0 mi NNW 13.8 mph 18.4 mph N/A   Mostly Cloudy
8:36 PM 24.8 °F - 10.4 °F 54% 30.05 in 10.0 mi Calm Calm - N/A   Overcast
8:57 PM 24.8 °F 17.9 °F 10.4 °F 54% 30.05 in 10.0 mi North 5.8 mph - N/A   Overcast
9:16 PM 24.8 °F 19.1 °F 10.4 °F 54% 30.06 in 10.0 mi North 4.6 mph - N/A   Mostly Cloudy
9:37 PM 24.8 °F 17.9 °F 12.2 °F 59% 30.06 in 10.0 mi North 5.8 mph - N/A   Overcast
9:57 PM 23.0 °F 13.9 °F 10.4 °F 59% 30.06 in 10.0 mi NW 8.1 mph - N/A   Overcast
10:16 PM 23.0 °F 14.7 °F 12.2 °F 63% 30.06 in 10.0 mi North 6.9 mph - N/A   Overcast
10:37 PM 21.2 °F 11.7 °F 15.8 °F 80% 30.06 in 10.0 mi NNW 8.1 mph - N/A Snow Light Snow
10:57 PM 21.2 °F 10.9 °F 12.2 °F 68% 30.06 in 10.0 mi NNW 9.2 mph - N/A   Mostly Cloudy
11:16 PM 21.2 °F 12.6 °F 12.2 °F 68% 30.06 in 10.0 mi NW 6.9 mph - N/A   Mostly Cloudy
11:37 PM 21.2 °F 11.7 °F 12.2 °F 68% 30.06 in 7.0 mi NNW 8.1 mph 16.1 mph N/A Snow Light Snow
11:57 PM 19.4 °F 12.8 °F 10.4 °F 68% 30.06 in 10.0 mi NW 4.6 mph - N/A   Mostly Cloudy